Regional Weather Roundup
Issued by NWS

Home | Current Version | Previous Version | Text Only | Print | Product List | Glossary On
Versions: 1 2 3 4 5 6 7 8 9 10 11 12 13 14 15 16 17 18 19 20 21 22 23 24 25 26 27 28 29 30 31 32 33 34 35 36 37 38 39 40 41 42 43 44 45 46 47 48 49 50
000
ASUS43 KLSX 192307
RWRMO

WEATHER SUMMARY FOR MISSOURI
NATIONAL WEATHER SERVICE SPRINGFIELD MO
600 PM CDT SAT APR 19 2014

NOTE: "FAIR" INDICATES FEW OR NO CLOUDS BELOW 12,000 FEET WITH NO
       SIGNIFICANT WEATHER AND/OR OBSTRUCTIONS TO VISIBILITY.
       CURRENT SKY AND/OR WEATHER CONDITIONS ARE NOT AVAILABLE FOR
       CHILLICOTHE AND FARMINGTON.

MOZ001>031-035>038-043-044-053-054-200000-
...NORTHERN AND WESTERN MISSOURI...

CITY           SKY/WX    TMP DP  RH WIND       PRES   REMARKS
KANSAS CTY INT PTSUNNY   75  43  31 S17G28    30.06S
KANSAS C DTWN  MOSUNNY   75  44  33 S17G24    30.06R
LEE`S SUMMIT   MOSUNNY   73  43  33 S15G23    30.08F
ST JOSEPH      MOSUNNY   76  44  32 S21G28    30.04R
CHILLICOTHE      N/A     76  43  30 S16G26    30.07F
KIRKSVILLE     SUNNY     76  40  27 S15       30.10F

$$
MOZ066>068-077>081-088>096-101>105-200000-
...SOUTHWEST MISSOURI...

CITY           SKY/WX    TMP DP  RH WIND       PRES   REMARKS
SPRINGFIELD    MOSUNNY   75  44  33 S9        30.13R
JOPLIN         SUNNY     75  45  34 MISG      30.10S

$$
MOZ032>034-039>042-045>050-055>058-069>072-200000-
...CENTRAL MISSOURI...

CITY           SKY/WX    TMP DP  RH WIND       PRES   REMARKS
COLUMBIA       SUNNY     74  39  28 S12       30.11F
JEFFERSON CITY SUNNY     77  37  23 SE7       30.10F
ROLLA          SUNNY     75  40  28 S8        30.11F
SEDALIA        MOSUNNY   76  45  33 S12       30.10F
WHITEMAN AFB   SUNNY     74  44  33 S15       30.09S
OSAGE BEACH    SUNNY     77  37  24 S7        30.12F

$$
MOZ051-052-059>065-200000-
...EAST CENTRAL MISSOURI...

CITY           SKY/WX    TMP DP  RH WIND       PRES   REMARKS
ST LOUIS INTL  PTSUNNY   74  40  29 SE10G17   30.17F
SPIRIT OF STL  PTSUNNY   73  40  30 SE6       30.15F
ST CHARLES     MOSUNNY   73  42  32 SE12      30.16F

$$
MOZ072>076-082>087-097>100-106>115-200000-
...SOUTH CENTRAL AND SOUTHEAST MISSOURI...

CITY           SKY/WX    TMP DP  RH WIND       PRES   REMARKS
CAPE GIRARDEAU SUNNY     74  44  34 S6        30.16R
FARMINGTON     MOSUNNY   73  43  33 E7        30.19S
POPLAR BLUFF   MOSUNNY   74  42  31 E7        30.15S
WEST PLAINS    SUNNY     74  39  28 SE8       30.16S

$$



USA.gov is the U.S. government's official web portal to all federal, state and local government web resources and services.